Location: Newark
(46.7000°N, 60.6000°W)
Time: 20:39:23
(UTC+00:00)

Envisat - Pass Details

Date: 29 September 2020
Orbit: 764 x 766 km, 98.1° (Epoch: 20 October)

Event Time Altitude Azimuth Distance (km) Brightness Sun altitude
Rises 09:19:43 0° 22° (NNE) 3,242 6.6 -7.6°
Reaches altitude 10° 09:22:19 10° 34° (NNE) 2,311 6.1 -7.1°
Maximum altitude 09:26:46 30° 94° (E) 1,361 5.3 -6.4°
Drops below altitude 10° 09:31:10 10° 155° (SSE) 2,295 5.8 -5.6°
Sets 09:33:43 0° 166° (SSE) 3,216 6.4 -5.2°
